AirNav   TITAN Aviation Fuels
 
 826 users online  

1B9 Mansfield Municipal Airport
Mansfield, Massachusetts, USA

GOING TO MANSFIELD?


FAA INFORMATION EFFECTIVE 09 SEPTEMBER 2021

Location

FAA Identifier: 1B9
Lat/Long: 42-00-03.1650N 071-11-52.9480W
42-00.052750N 071-11.882467W
42.0008792,-71.1980411
(estimated)
Elevation: 122.9 ft. / 37.5 m (surveyed)
Variation: 16W (1995)
From city: 2 miles SE of MANSFIELD, MA
Time zone: UTC -4 (UTC -5 during Standard Time)
Zip code: 02048

Airport Operations

Airport use: Open to the public
Activation date: 05/1943
Control tower: no
ARTCC: BOSTON CENTER
FSS: BRIDGEPORT FLIGHT SERVICE STATION
NOTAMs facility: BDR (NOTAM-D service available)
Attendance: APR-NOV 0800-DUSK, DEC-MAR 0900-1700
Wind indicator: yes
Segmented circle: no
Lights: ACTVT MIRL RWY 14/32 - CTAF.
Beacon: white-green (lighted land airport)
Operates sunset to sunrise.

Airport Communications

CTAF/UNICOM: 123.0
BOSTON APPROACH: 124.1
BOSTON DEPARTURE: 124.1
WX ASOS at TAN (11 nm SE): 132.675 (508-824-5005)
WX ASOS at OWD (11 nm N): 119.95 (781-762-4314)
WX AWOS-3PT at SFZ (14 nm W): 120.775 (401-334-0324)
WX ASOS at PVD (20 nm SW): 124.2 (401-734-2818)
  • CLNC DLVY THRU BRIDGEPORT RADIO (BDR) 1-866-293-5149.

Nearby radio navigation aids

VOR radial/distance  VOR name  Freq  Var
PVDr046/19.6PROVIDENCE VOR/DME115.6014W
BOSr219/23.3BOSTON VOR/DME112.7016W
PUTr099/28.9PUTNAM VOR/DME117.4014W

 
NDB name  Hdg/Dist  Freq  Var  ID
STOGE218/7.839715WOW --- .--

Airport Services

Fuel available: 100LL
Parking: tiedowns
Airframe service: MAJOR
Powerplant service: MAJOR
Bottled oxygen: NONE
Bulk oxygen: NONE

Runway Information

Runway 14/32

Dimensions: 3500 x 75 ft. / 1067 x 23 m
Surface: asphalt, in good condition
Weight bearing capacity: 
Single wheel: 26.0
Runway edge lights: medium intensity
RUNWAY 14  RUNWAY 32
Latitude: 42-00.156833N41-59.846542N
Longitude: 071-12.118583W071-11.467663W
Elevation: 121.4 ft.119.0 ft.
Traffic pattern: leftleft
Runway heading: 139 magnetic, 123 true319 magnetic, 303 true
Displaced threshold: 509 ft.237 ft.
Markings: basic, in good conditionnonprecision, in good condition
Visual slope indicator: 4-light PAPI on left (4.00 degrees glide path)
Touchdown point: yes, no lightsyes, no lights
Obstructions: 50 ft. trees, 1200 ft. from runway, 20:1 slope to clear
RWY 14 APCH RATIO 34:1 TO DSPLCD THR.
50 ft. trees, 800 ft. from runway, 125 ft. left and right of centerline, 12:1 slope to clear
RWY 32 APCH RATIO 34:1 TO DSPLCD THR.

Runway 4/22

Dimensions: 2059 x 100 ft. / 628 x 30 m
Surface: turf, in good condition
RUNWAY 4  RUNWAY 22
Latitude: 41-59.989857N42-00.289240N
Longitude: 071-12.140922W071-11.927852W
Elevation: 116.8 ft.122.9 ft.
Traffic pattern: leftleft
Runway heading: 044 magnetic, 028 true224 magnetic, 208 true
Markings: nonenone
Touchdown point: yes, no lightsyes, no lights
Obstructions: 42 ft. trees, 830 ft. from runway, 20:1 slope to clear100 ft. trees, 600 ft. from runway, 40 ft. of centerline, 6:1 slope to clear

Airport Ownership and Management from official FAA records

Ownership: Publicly-owned
Owner: TOWN OF MANSFIELD
TOWN HALL, 6 PARK ROW
MANSFIELD, MA 02048
Phone 508-261-7370
Manager: KEVIN BULLOCK
265 FRUIT STREET
MANSFIELD, MA 02048
Phone (508) 339-3001
OR 508-339-3001.

Airport Operational Statistics

Aircraft based on the field: 45
Single engine airplanes: 42
Multi engine airplanes: 2
Gliders airplanes: 1
    
Aircraft operations: avg 101/day *
54% local general aviation
43% transient general aviation
2% air taxi
<1% military
* for 12-month period ending 07 May 2020

Additional Remarks

TURF STRIP CLSD WINTER MONTHS & AFTER HEAVY RAINS.
DEER ON AND INVOF ARPT.
ON DEP RWY 32 TURN LEFT TO 290 DEGS.
ON DEP RWY 14 NO LEFT TURNS TIL 824 FT MSL.
NO TGLS 2100-0800.
NO RIGHT TURNS ON DEP FM RWY 32 TIL 1000 FT MSL.

Instrument Procedures

NOTE: All procedures below are presented as PDF files. If you need a reader for these files, you should download the free Adobe Reader.

NOT FOR NAVIGATION. Please procure official charts for flight.
FAA instrument procedures published for use from 09 September 2021 at 0901Z to 07 October 2021 at 0900Z.

 
STARs - Standard Terminal Arrivals
WOONS TWO   download (168KB)
 
IAPs - Instrument Approach Procedures
RNAV (GPS) RWY 32   download (203KB)
NOTE: Special Take-Off Minimums/Departure Procedures apply   download (180KB)

Other nearby airports with instrument procedures:

KTAN - Taunton Municipal Airport - King Field (11 nm SE)
KOWD - Norwood Memorial Airport (11 nm N)
KSFZ - North Central State Airport (14 nm W)
1B6 - Hopedale Industrial Park Airport (15 nm NW)
KPVD - Theodore Francis Green State Airport (20 nm SW)
 
Loc | Ops | Rwys | IFR | FBO | Links
Com | Nav | Svcs | Stats | Notes
Area around 1B9 (Mansfield Municipal Airport)
 
Road maps at: MapQuest Bing Google
 
Aerial photo
WARNING: Photo may not be current or correct
Aerial photo of 1B9 (Mansfield Municipal Airport)
Photo by Barry Turner
Photo taken 01-Oct-2017
looking east.

Do you have a better or more recent aerial photo of Mansfield Municipal Airport that you would like to share? If so, please send us your photo.

 
Sectional chart

 
Airport distance calculator
Flying to Mansfield Municipal Airport? Find the distance to fly.

From to 1B9

Sunrise and sunset
Times for 20-Sep-2021
 Local
(UTC-4)
 Zulu
(UTC)
Morning civil twilight06:0310:03
Sunrise06:3110:31
Sunset18:4522:45
Evening civil twilight19:1323:13

Current date and time
Zulu (UTC)  20-Sep-2021 12:13:10
Local (UTC-4)  20-Sep-2021 08:13:10
 
METAR
KTAN 
11nm SE 
201152Z AUTO 00000KT 10SM CLR 12/11 A3035 RMK AO2 SLP278 T01220106 10122 20072 53021
KOWD 
11nm N 
201153Z 00000KT 10SM CLR 12/11 A3035 RMK AO2 SLP278 T01170106 10117 20072 53020
KSFZ 
14nm W 
201156Z AUTO 00000KT 10SM CLR 14/13 A3035 RMK AO2 SLP285 6//// 7//// T01440128 10144 20094 53019 PNO $
KPVD 
20nm SW 
201151Z 00000KT 10SM FEW080 FEW300 14/12 A3035 RMK AO2 SLP278 T01440122 10150 20111 53020
KPYM 
21nm E 
201152Z AUTO 00000KT 10SM CLR 14/12 A3035 RMK AO2 SLP277 T01390117 10139 20094 53021
TAF
NOTAMs
Click for the latest NOTAMs
NOTAMs are issued by the DoD/FAA and will open in a separate window not controlled by AirNav.

 

 
 

FBO, Fuel Providers, and Aircraft Ground Support

  
 Business Name 
 
 Contact 
 
 Services / Description 
 
Fuel Prices
 
Comments
  
 Aero Fuel Management
508-339-3001
[web site]
[email]
Airport management, Aviation fuel, Aircraft parking (ramp or tiedown), Hangars, Restrooms

More info about Aero Fuel Management
Titan
100LL
SS $5.65 
GUARANTEED
 
   2 read write
 Raven Energy,LLC
508-612-2463
508-612-9790
[web site]
[email]
Jet A fuel available upon request only please call 508-612-2463 or 508-612-9790
 
U.S. Government AIR Card   AVCARD® by World Fuel  
 
More info about Raven Energy,LLC
Jet A
FS $4.75 
 Updated 01-Aug-2020
 
   write
FS=Full service
SS=Self service
Update Fuel Prices
 

Would you like to see your business listed on this page?

 If your business provides an interesting product or service to pilots, flight crews, aircraft, or users of the Mansfield Municipal Airport, you should consider listing it here.  To start the listing process, click on the button below
 
Add a business
 

Other Pages about Mansfield Municipal Airport

www.mansfieldma.com/...
 
Update a link
 
Copyright © AirNav, LLC. All rights reserved. Privacy Policy  Contact